DW2107 Weather Reports


Display with metric or nautical units.
time (UTC)temp
F
wind
direction
speed
MPH
gust
MPH
rain 1hr
in
rain 24hr
in
rain mn
in
humidity
%
barometer
mb
20190215190132 48 31 6.0 0.0 0.00 0.00 0.00 51 1007.6
20190215184634 48 20 6.0 0.0 0.00 0.00 0.00 51 1005.9
20190215183235 48 94 8.0 0.0 0.00 0.00 0.00 50 1007.8
20190215181637 49 48 4.0 0.0 0.00 0.00 0.00 48 1007.7
20190215180236 49 348 2.0 0.0 0.00 0.00 0.00 48 1006.8
20190215174623 49 83 3.0 0.0 0.00 0.00 0.00 47 1007.4
20190215173124 49 57 6.0 0.0 0.00 0.00 0.00 46 1008.6
20190215171712 50 80 9.0 0.0 0.00 0.00 0.00 46 1005.5
20190215170204 50 27 7.0 0.0 0.00 0.00 0.00 47 1002.5
20190215164706 49 92 5.0 0.0 0.00 0.00 0.00 49 998.7
20190215163256 49 17 5.0 0.0 0.00 0.00 0.00 53 998.7
20190215161706 49 53 7.0 0.0 0.00 0.00 0.00 53 1003.2
20190215160214 50 36 7.0 0.0 0.00 0.00 0.00 51 1000.0
20190215154653 51 40 4.0 0.0 0.00 0.00 0.00 42 1000.0
20190215153143 54 45 8.0 0.0 0.00 0.00 0.00 40 1000.0
20190215151635 55 24 5.0 0.0 0.00 0.00 0.00 37 1000.0
20190215150131 55 22 6.0 0.0 0.00 0.00 0.00 38 1001.8
20190215144654 54 29 5.0 0.0 0.00 0.00 0.00 40 1012.4
20190215143132 55 76 6.0 0.0 0.00 0.00 0.00 40 1012.4
20190215141626 56 45 9.0 0.0 0.00 0.00 0.00 38 1012.4
20190215140126 57 40 6.0 0.0 0.00 0.00 0.00 37 1012.4
20190215134615 58 57 4.0 0.0 0.00 0.00 0.00 36 1011.4
20190215133115 56 26 7.0 0.0 0.00 0.00 0.00 37 1011.4
20190215131657 56 344 6.0 0.0 0.00 0.00 0.00 36 1016.9
20190215130227 58 21 4.0 0.0 0.00 0.00 0.00 34 1006.2
20190215124610 61 58 2.0 0.0 0.00 0.00 0.00 29 1015.8
20190215123111 60 46 2.0 0.0 0.00 0.00 0.00 32 1010.0
20190215121628 60 160 1.0 0.0 0.00 0.00 0.00 31 1007.1
20190215114625 57 78 3.0 0.0 0.00 0.00 0.00 36 1001.6
20190215113124 56 26 3.0 0.0 0.00 0.00 0.00 35 1008.4
20190215111615 56 63 3.0 0.0 0.00 0.00 0.00 38 1007.6
20190215104616 57 101 1.0 0.0 0.00 0.00 0.00 38 1007.2
20190215103210 56 120 2.0 0.0 0.00 0.00 0.00 37 1007.2
20190215101554 56 115 3.0 0.0 0.00 0.00 0.00 38 1011.7
20190215094626 54 46 4.0 0.0 0.00 0.00 0.00 41 1005.0
20190215093052 54 38 4.0 0.0 0.00 0.00 0.00 42 1007.8
20190215091634 52 34 5.0 0.0 0.00 0.00 0.00 43 1010.9
20190215084628 51 14 7.0 0.0 0.00 0.00 0.00 45 1007.4
20190215083139 51 51 7.0 0.0 0.00 0.00 0.00 47 1007.4
20190215081636 50 32 9.0 0.0 0.00 0.00 0.00 46 1010.2
20190215074659 50 22 7.0 0.0 0.00 0.00 0.00 48 1014.1
20190215073056 50 55 5.0 0.0 0.00 0.00 0.00 50 1009.1
20190215071525 49 19 4.0 0.0 0.00 0.00 0.00 49 1009.1
20190215064541 47 13 4.0 0.0 0.00 0.00 0.00 48 1008.2
20190215063106 47 42 4.0 0.0 0.00 0.00 0.00 48 1008.2
20190215061620 46 52 4.0 0.0 0.00 0.00 0.00 48 1008.0
20190215054649 46 41 2.0 0.0 0.00 0.00 0.00 53 1007.6
20190215053108 45 43 2.0 0.0 0.00 0.00 0.00 54 1007.8
20190215051657 45 29 2.0 0.0 0.00 0.00 0.00 52 1008.9
20190215044725 46 11 1.0 0.0 0.00 0.00 0.00 51 1008.6
20190215043124 46 14 2.0 0.0 0.00 0.00 0.00 50 1007.7
20190215041535 46 9 1.0 0.0 0.00 0.00 0.00 53 1008.1
20190215040347 46 360 1.0 0.0 0.00 0.00 0.00 54 1007.8
20190215034705 46 22 2.0 0.0 0.00 0.00 0.00 52 1007.8
20190215033056 47 9 3.0 0.0 0.00 0.00 0.00 53 1007.8
20190215031604 46 61 2.0 0.0 0.00 0.00 0.00 55 1008.0
20190215024632 47 44 2.0 0.0 0.00 0.00 0.00 50 1008.1
20190215023118 47 27 2.0 0.0 0.00 0.00 0.00 46 1008.1
20190215021639 47 35 2.0 0.0 0.00 0.00 0.00 51 1005.6
20190215014628 48 318 0.0 0.0 0.00 0.00 0.00 46 1008.9
20190215013149 48 14 0.0 0.0 0.00 0.00 0.00 45 1007.5
20190215011629 48 50 1.0 0.0 0.00 0.00 0.00 47 1008.2
20190215004727 49 19 2.0 0.0 0.00 0.00 0.00 47 1006.8
20190215003149 49 360 4.0 0.0 0.00 0.00 0.00 47 1007.1
20190215001650 48 82 3.0 0.0 0.00 0.00 0.00 45 1006.8
20190214234625 48 27 1.0 0.0 0.00 0.00 0.00 47 1006.8
20190214233204 49 19 0.0 0.0 0.00 0.00 0.00 45 1007.5
20190214231657 48 282 0.0 0.0 0.00 0.00 0.00 47 1006.9
20190214224804 49 78 0.0 0.0 0.00 0.00 0.00 47 1006.8
20190214223220 50 60 3.0 0.0 0.00 0.00 0.00 43 1006.8
20190214221642 50 26 6.0 0.0 0.00 0.00 0.00 44 1006.8
20190214214718 49 44 5.0 0.0 0.00 0.00 0.00 48 1006.9
20190214213124 49 49 2.0 0.0 0.00 0.00 0.00 49 1007.0
20190214211643 50 14 0.0 0.0 0.00 0.00 0.00 48 1007.0
20190214204610 51 32 1.0 0.0 0.00 0.00 0.00 50 1008.2
20190214203049 51 24 1.0 0.0 0.00 0.00 0.00 48 1007.6
20190214201556 51 340 0.0 0.0 0.00 0.00 0.00 49 1008.2
20190214194637 51 34 0.0 0.0 0.00 0.00 0.00 52 1007.4
20190214193200 52 32 0.0 0.0 0.00 0.00 0.00 52 1007.9
20190214191642 51 72 0.0 0.0 0.00 0.00 0.00 51 1006.9